(471520) = 2006 UJ123 = 2012 FA66

Discovered at Kitt Peak on 2006-10-19 by Spacewatch.

Orbit

Orbit type: Main Belt

Note: WebGL enabled browser required.

epoch2023-09-13.0
epoch JD2460200.5
perihelion date2023-05-02.14526
perihelion JD2460066.64526
argument of perihelion (°)248.03269
ascending node (°)42.54618
inclination (°)5.86068
eccentricity0.2375305
perihelion distance (AU)1.7384802
Tisserand w.r.t. Jupiter3.6
ΔV w.r.t. Earth (km/sec)8.3
semimajor axis (AU)2.2800651
mean anomaly (°)38.31923
mean daily motion (°/day)0.28627470
aphelion distance (AU)2.822
period (years)3.44
P-vector [x]0.34821858
P-vector [y]-0.81799221
P-vector [z]-0.45785648
Q-vector [x]0.93486715
Q-vector [y]0.33900711
Q-vector [z]0.10534511
absolute magnitude18.57
phase slope0.15
uncertainty0
referenceMPO 780200
observations used102
oppositions7
arc length (days)6209
first opposition used2006
last opposition used2023
residual rms (arc-secs)0.76
perturbers coarse indicatorM-v
perturbers precise indicator003Ek
first observation date used2006-10-19.0
last observation date used2023-10-19.0
computer nameMPCLINUX
JD of orbit computation2457611.252579
perihelion JD uncertainty (days)4.8066E-05
argument of perihelion uncertainty (°)5.1702E-05
ascending node uncertainty (°)4.9026E-05
inclination uncertainty (°)2.7599E-06
eccentricity uncertainty 5.3236E-08
perihelion distance uncertainty (AU)1.3032E-07
Minimum Orbit Intersection Distances (in AU)
for orbit epoch: 2460200.5, reference: E2023-U59
Mercury1.28454
Venus1.01296
Earth0.73234
Mars0.31517
Jupiter2.37695
Saturn6.27004
Uranus15.8008
Neptune27.2825

Observations

104 total observations over interval: 2006 10 19.21844 – 2023 10 19.316903
These data are available for download (format description).

Date (UT) J2000 RA J2000 Dec Magn Location Ref
2006 10 19.21844 02 02 19.98 +09 45 55.6 20.9 V 691 – Steward Observatory, Kitt Peak-Spacewatch MPS 184345
2006 10 19.23587 02 02 18.74 +09 45 52.5 20.9 V 691 – Steward Observatory, Kitt Peak-Spacewatch MPS 184345
2006 10 19.25331 02 02 17.52 +09 45 49.5 21.4 V 691 – Steward Observatory, Kitt Peak-Spacewatch MPS 184345
2006 10 23.21202 01 57 44.44 +09 34 32.9 21.0 V 691 – Steward Observatory, Kitt Peak-Spacewatch MPS 184345
2006 10 23.22945 01 57 43.16 +09 34 29.9 21.0 V 691 – Steward Observatory, Kitt Peak-Spacewatch MPS 184345
2006 10 23.25032 01 57 41.71 +09 34 26.5 21.1 V 691 – Steward Observatory, Kitt Peak-Spacewatch MPS 184345
2006 10 28.21327 01 52 05.08 +09 20 50.9 20.9 V 691 – Steward Observatory, Kitt Peak-Spacewatch MPS 468692
2006 10 28.23071 01 52 03.87 +09 20 48.3 21.0 V 691 – Steward Observatory, Kitt Peak-Spacewatch MPS 468692
2006 10 28.24822 01 52 02.68 +09 20 45.7 20.8 V 691 – Steward Observatory, Kitt Peak-Spacewatch MPS 468692
2012 03 15.41357 12 24 07.56 +04 53 35.9 21.9 V G96 – Mt. Lemmon Survey MPS 466908
2012 03 15.42108 12 24 07.09 +04 53 37.7 21.9 V G96 – Mt. Lemmon Survey MPS 466908
2012 03 15.42858 12 24 06.62 +04 53 40.5 20.8 V G96 – Mt. Lemmon Survey MPS 466908
2012 03 15.43607 12 24 06.19 +04 53 42.7 22.0 V G96 – Mt. Lemmon Survey MPS 466908
2012 03 27.33406 12 11 34.128 +05 53 56.89 21.6 w F51 – Pan-STARRS 1, Haleakala MPS 418688
2012 03 27.34851 12 11 33.154 +05 54 00.87 21.4 w F51 – Pan-STARRS 1, Haleakala MPS 418688
2012 03 27.36293 12 11 32.180 +05 54 04.55 21.6 w F51 – Pan-STARRS 1, Haleakala MPS 418688
2012 03 27.37741 12 11 31.190 +05 54 08.68 21.7 w F51 – Pan-STARRS 1, Haleakala MPS 418688
2012 04 01.23692 12 06 16.12 +06 15 14.4 21.6 V G96 – Mt. Lemmon Survey MPS 418688
2012 04 01.24441 12 06 15.58 +06 15 16.3 21.0 V G96 – Mt. Lemmon Survey MPS 418688
2012 04 01.25191 12 06 15.08 +06 15 18.4 20.6 V G96 – Mt. Lemmon Survey MPS 418688
2012 04 01.25941 12 06 14.58 +06 15 19.8 21.5 V G96 – Mt. Lemmon Survey MPS 418688
2015 01 22.40334 09 38 30.209 +23 33 21.67 22.3 w F51 – Pan-STARRS 1, Haleakala MPS 562760
2015 01 22.41547 09 38 29.511 +23 33 25.84 22.2 w F51 – Pan-STARRS 1, Haleakala MPS 562760
2015 01 22.42762 09 38 28.804 +23 33 30.05 22.2 w F51 – Pan-STARRS 1, Haleakala MPS 562760
2015 01 22.43982 09 38 28.075 +23 33 34.73 22.4 w F51 – Pan-STARRS 1, Haleakala MPS 562760
2016 06 02.57469 21 33 55.625 -23 33 06.50 20.8 w F51 – Pan-STARRS 1, Haleakala MPS 712312
2016 06 02.58371 21 33 56.330 -23 33 06.34 20.7 w F51 – Pan-STARRS 1, Haleakala MPS 712312
2016 06 02.59274 21 33 57.055 -23 33 06.14 21.0 w F51 – Pan-STARRS 1, Haleakala MPS 712312
2016 06 02.60175 21 33 57.783 -23 33 06.09 21.1 w F51 – Pan-STARRS 1, Haleakala MPS 712312
2016 07 05.48874 22 01 49.627 -24 46 17.90 20.3 w F51 – Pan-STARRS 1, Haleakala MPS 717437
2016 07 05.49961 22 01 49.727 -24 46 21.11 20.2 w F51 – Pan-STARRS 1, Haleakala MPS 717437
2016 07 05.51045 22 01 49.823 -24 46 24.22 20.3 w F51 – Pan-STARRS 1, Haleakala MPS 717437
2016 07 05.52128 22 01 49.918 -24 46 27.38 20.2 w F51 – Pan-STARRS 1, Haleakala MPS 717437
2016 07 14.37193 22 02 04.07 -25 32 43.9 20.6 r G45 – Space Surveillance Telescope, Atom Site MPS 719458
2016 07 14.38163 22 02 03.94 -25 32 47.4 20.2 r G45 – Space Surveillance Telescope, Atom Site MPS 719458
2016 07 14.38577 22 02 03.85 -25 32 48.6 20.0 r G45 – Space Surveillance Telescope, Atom Site MPS 719458
2016 07 14.38618 22 02 03.89 -25 32 49.0 20.4 r G45 – Space Surveillance Telescope, Atom Site MPS 719458
2016 07 14.39113 22 02 03.76 -25 32 49.5 20.3 r G45 – Space Surveillance Telescope, Atom Site MPS 719458
2016 07 14.39591 22 02 03.72 -25 32 52.2 20.2 r G45 – Space Surveillance Telescope, Atom Site MPS 719458
2016 07 16.55887 22 01 37.123 -25 45 03.56 19.7 i F51 – Pan-STARRS 1, Haleakala MPS 719458
2016 07 16.56983 22 01 36.908 -25 45 07.19 19.7 i F51 – Pan-STARRS 1, Haleakala MPS 719458
2016 08 07.45318 21 48 01.236 -27 37 48.50 19.6 w F51 – Pan-STARRS 1, Haleakala MPS 723496
2016 08 07.46513 21 48 00.538 -27 37 51.21 19.6 w F51 – Pan-STARRS 1, Haleakala MPS 723496
2016 08 07.47705 21 47 59.844 -27 37 53.64 19.5 w F51 – Pan-STARRS 1, Haleakala MPS 723496
2016 08 10.43369 21 45 19.910 -27 47 30.01 19.6 w F51 – Pan-STARRS 1, Haleakala MPS 723496
2016 08 10.44403 21 45 19.288 -27 47 31.87 19.6 w F51 – Pan-STARRS 1, Haleakala MPS 723496
2019 03 29.35738 13 26 27.17 -03 50 58.3 21.4 G G96 – Mt. Lemmon Survey MPS 1143790
2019 03 29.36249 13 26 26.89 -03 50 57.1 21.7 G G96 – Mt. Lemmon Survey MPS 1143790
2019 03 29.36760 13 26 26.56 -03 50 56.1 20.8 G G96 – Mt. Lemmon Survey MPS 1143790
2019 03 29.37271 13 26 26.27 -03 50 54.5 21.3 G G96 – Mt. Lemmon Survey MPS 1143790
2019 04 05.67405 13 19 07.82 -03 24 30.0 20.3 R D29 – Purple Mountain Observatory, XuYi Station MPS 990442
2019 04 05.69621 13 19 06.27 -03 24 26.8 21.4 R D29 – Purple Mountain Observatory, XuYi Station MPS 990442
2019 04 07.39657 13 17 17.25 -03 18 14.1 20.8 G G96 – Mt. Lemmon Survey MPS 990442
2019 04 07.40173 13 17 16.85 -03 18 13.0 21.2 G G96 – Mt. Lemmon Survey MPS 990442
2019 04 07.40693 13 17 16.50 -03 18 11.2 21.4 G G96 – Mt. Lemmon Survey MPS 990442
2019 04 07.41210 13 17 16.20 -03 18 10.7 20.9 G G96 – Mt. Lemmon Survey MPS 990442
2019 04 09.38400 13 15 08.225 -03 11 02.50 20.8 w F51 – Pan-STARRS 1, Haleakala MPS 990442
2019 04 09.39564 13 15 07.426 -03 11 00.03 20.6 w F51 – Pan-STARRS 1, Haleakala MPS 990442
2019 04 09.41898 13 15 05.839 -03 10 55.06 20.5 w F51 – Pan-STARRS 1, Haleakala MPS 990442
2019 04 25.19914 12 58 03.86 -02 23 58.2 20.7 G G96 – Mt. Lemmon Survey MPS 1000759
2019 04 25.20472 12 58 03.54 -02 23 56.9 21.5 G G96 – Mt. Lemmon Survey MPS 1000759
2019 04 25.21031 12 58 03.24 -02 23 56.7 21.1 G G96 – Mt. Lemmon Survey MPS 1000759
2019 04 25.21590 12 58 02.85 -02 23 55.6 21.5 G G96 – Mt. Lemmon Survey MPS 1000759
2019 06 05.27621 12 40 38.962 -03 32 07.01 21.8 w F51 – Pan-STARRS 1, Haleakala MPS 1371768
2019 06 05.28797 12 40 39.127 -03 32 10.83 21.8 w F51 – Pan-STARRS 1, Haleakala MPS 1371768
2019 06 05.29976 12 40 39.281 -03 32 14.42 21.4 w F51 – Pan-STARRS 1, Haleakala MPS 1371768
2020 11 11.306527 03 56 21.72 +22 48 58.9 22.04 G G96 – Mt. Lemmon Survey MPS 1299739
2020 11 11.311642 03 56 21.34 +22 48 58.7 21.88 G G96 – Mt. Lemmon Survey MPS 1299739
2020 11 11.316765 03 56 21.01 +22 48 58.0 22.52 G G96 – Mt. Lemmon Survey MPS 1299739
2020 12 10.26930 03 23 47.458 +21 58 14.90 22.1 w F51 – Pan-STARRS 1, Haleakala MPS 1327737
2020 12 10.28226 03 23 46.734 +21 58 13.49 22.0 w F51 – Pan-STARRS 1, Haleakala MPS 1327737
2020 12 10.29526 03 23 46.036 +21 58 12.29 22.2 w F51 – Pan-STARRS 1, Haleakala MPS 1327737
2020 12 10.30844 03 23 45.300 +21 58 10.46 22.0 w F51 – Pan-STARRS 1, Haleakala MPS 1327737
2023 07 26.573615 00 06 28.572 -10 02 28.43 20.92 w F52 – Pan-STARRS 2, Haleakala MPS 1935335
2023 07 26.583271 00 06 28.772 -10 02 28.53 20.83 w F52 – Pan-STARRS 2, Haleakala MPS 1935335
2023 07 26.592939 00 06 28.967 -10 02 28.74 21.05 w F52 – Pan-STARRS 2, Haleakala MPS 1935335
2023 07 26.602580 00 06 29.164 -10 02 28.77 20.99 w F52 – Pan-STARRS 2, Haleakala MPS 1935335
2023 08 18.530132 00 05 14.884 -10 48 45.94 20.60 w F52 – Pan-STARRS 2, Haleakala MPS 1962521
2023 08 18.542350 00 05 14.478 -10 48 48.45 20.44 w F52 – Pan-STARRS 2, Haleakala MPS 1962521
2023 08 18.554564 00 05 14.062 -10 48 51.11 20.53 w F52 – Pan-STARRS 2, Haleakala MPS 1962521
2023 08 18.566755 00 05 13.658 -10 48 53.63 20.62 w F52 – Pan-STARRS 2, Haleakala MPS 1962521
2023 09 05.443183 23 51 25.253 -11 56 31.46 19.96 i F52 – Pan-STARRS 2, Haleakala MPS 1967579
2023 09 05.453653 23 51 24.618 -11 56 33.63 19.82 i F52 – Pan-STARRS 2, Haleakala MPS 1967579
2023 09 05.464094 23 51 23.956 -11 56 35.80 19.70 i F52 – Pan-STARRS 2, Haleakala MPS 1967579
2023 09 06.474339 23 50 23.965 -12 00 04.57 20.22 w F51 – Pan-STARRS 1, Haleakala MPS 1967579
2023 09 06.485363 23 50 23.270 -12 00 06.94 20.23 w F51 – Pan-STARRS 1, Haleakala MPS 1967579
2023 09 06.496370 23 50 22.568 -12 00 09.09 20.20 w F51 – Pan-STARRS 1, Haleakala MPS 1967579
2023 09 06.507397 23 50 21.864 -12 00 11.34 20.08 w F51 – Pan-STARRS 1, Haleakala MPS 1967579
2023 09 07.370705 23 49 30.018 -12 03 06.55 19.79 G G96 – Mt. Lemmon Survey MPS 1967579
2023 09 07.377764 23 49 29.561 -12 03 07.96 19.91 G G96 – Mt. Lemmon Survey MPS 1967579
2023 09 07.382898 23 49 29.244 -12 03 08.64 20.26 G G96 – Mt. Lemmon Survey MPS 1967579
2023 09 07.388031 23 49 28.909 -12 03 09.86 20.33 G G96 – Mt. Lemmon Survey MPS 1967579
2023 10 10.338398 23 20 10.625 -12 13 53.39 20.71 w F52 – Pan-STARRS 2, Haleakala MPS 2012884
2023 10 10.349252 23 20 10.241 -12 13 51.41 20.69 w F52 – Pan-STARRS 2, Haleakala MPS 2012884
2023 10 10.360115 23 20 09.876 -12 13 49.34 20.74 w F52 – Pan-STARRS 2, Haleakala MPS 2012884
2023 10 10.370959 23 20 09.497 -12 13 47.25 20.77 w F52 – Pan-STARRS 2, Haleakala MPS 2012884
2023 10 17.212781 23 17 20.904 -11 47 35.81 20.99 G G96 – Mt. Lemmon Survey MPS 2012884
2023 10 17.218478 23 17 20.778 -11 47 33.97 21.32 G G96 – Mt. Lemmon Survey MPS 2012884
2023 10 17.224157 23 17 20.677 -11 47 32.42 20.85 G G96 – Mt. Lemmon Survey MPS 2012884
2023 10 17.229830 23 17 20.562 -11 47 30.77 21.17 G G96 – Mt. Lemmon Survey MPS 2012884
2023 10 19.283495 23 16 48.620 -11 37 52.03 21.13 w F51 – Pan-STARRS 1, Haleakala MPS 2031331
2023 10 19.294637 23 16 48.438 -11 37 48.91 21.14 w F51 – Pan-STARRS 1, Haleakala MPS 2031331
2023 10 19.305769 23 16 48.261 -11 37 45.64 21.25 w F51 – Pan-STARRS 1, Haleakala MPS 2031331
2023 10 19.316903 23 16 48.074 -11 37 42.56 21.08 w F51 – Pan-STARRS 1, Haleakala MPS 2031331